Mount Pleasant, IA

10:06 PM CDT on May 27, 2018 (GMT -0500)
Mount Pleasant Municipal

Weather History for KMPZ - October, 2013

Change the Weather History Date:

Saturday, October 26, 2013

  Actual Average Record
Temperature  
Mean Temperature 45 °F -  
Max Temperature 54 °F 60 °F 84 °F (1963)
Min Temperature 34 °F 39 °F 20 °F (1962)
Degree Days  
Heating Degree Days 20    
Moisture  
Dew Point 25 °F    
Average Humidity 45    
Maximum Humidity 70    
Minimum Humidity 25    
Precipitation  
Precipitation 0.00 in - - ()
Sea Level Pressure  
Sea Level Pressure 30.06 in    
Wind  
Wind Speed 12 mph (West)    
Max Wind Speed 21 mph    
Max Gust Speed 28 mph    
Visibility 10 miles    
Events      
Averages and records for this station are not official NWS values.
T = Trace of Precipitation, MM = Missing Value Source: NWS Daily Summary

Daily Weather History Graph

Daily Weather History Graph

Search for Another Location

Airport or City:

Astronomy

Oct. 26, 2013 Rise Set
Actual Time 7:30 AM CDT 6:09 PM CDT
Civil Twilight 7:01 AM CDT 6:37 PM CDT
Nautical Twilight 6:29 AM CDT 7:09 PM CDT
Astronomical Twilight 5:57 AM CDT 7:41 PM CDT
Moon No Moon Rise 1:46 PM CDT (10/26)
Length of Visible Light 11h 35m
Length of Day
10h 39m
Waning Gibbous, 53% of the Moon is Illuminated
Oct 26
Waning Gibbous
Oct 26
Last Quarter
Nov 3
New
Nov 9
First Quarter
Nov 17
Full

Hourly Weather History & Observations

Time (CDT) Temp. Windchill Dew Point Humidity Pressure Visibility Wind Dir Wind Speed Gust Speed Precip Events Conditions
12:15 AM 43.7 °F 37.3 °F 24.1 °F 46% 30.09 in 10.0 mi SSW 12.7 mph - N/A   Mostly Cloudy
12:35 AM 44.2 °F 38.4 °F 24.3 °F 45% 30.08 in 10.0 mi SSW 11.5 mph - N/A   Overcast
12:55 AM 43.3 °F 37.2 °F 24.3 °F 47% 30.07 in 10.0 mi SSW 11.5 mph - N/A   Scattered Clouds
1:15 AM 43.2 °F 36.6 °F 24.4 °F 48% 30.07 in 10.0 mi SSW 12.7 mph 17.3 mph N/A   Scattered Clouds
1:35 AM 44.1 °F 38.6 °F 24.4 °F 46% 30.06 in 10.0 mi SSW 10.4 mph - N/A   Overcast
1:55 AM 43.2 °F 36.6 °F 24.4 °F 48% 30.04 in 10.0 mi SSW 12.7 mph - N/A   Mostly Cloudy
2:15 AM 42.6 °F 35.2 °F 24.6 °F 49% 30.03 in 10.0 mi SSW 15.0 mph - N/A   Scattered Clouds
2:35 AM 42.3 °F 35.1 °F 24.8 °F 50% 30.02 in 10.0 mi SSW 13.8 mph - N/A   Clear
2:55 AM 42.1 °F 34.9 °F 25.0 °F 51% 30.01 in 10.0 mi SSW 13.8 mph - N/A   Clear
3:15 AM 41.7 °F 34.4 °F 25.3 °F 52% 30.00 in 10.0 mi SSW 13.8 mph - N/A   Clear
3:35 AM 41.4 °F 33.6 °F 25.5 °F 53% 29.99 in 10.0 mi SSW 15.0 mph - N/A   Clear
3:55 AM 41.2 °F 33.7 °F 25.7 °F 54% 29.98 in 10.0 mi SSW 13.8 mph - N/A   Clear
4:15 AM 41.2 °F 33.7 °F 26.2 °F 55% 29.98 in 10.0 mi SSW 13.8 mph - N/A   Clear
4:35 AM 41.0 °F 33.5 °F 26.6 °F 57% 29.97 in 10.0 mi SSW 13.8 mph - N/A   Clear
4:55 AM 41.0 °F 33.9 °F 27.1 °F 58% 29.96 in 10.0 mi SSW 12.7 mph - N/A   Clear
5:15 AM 40.5 °F 33.6 °F 27.5 °F 60% 29.96 in 10.0 mi SW 11.5 mph - N/A   Clear
5:35 AM 40.3 °F 33.9 °F 28.2 °F 62% 29.96 in 10.0 mi SSW 10.4 mph - N/A   Clear
5:55 AM 39.9 °F 33.4 °F 28.4 °F 63% 29.97 in 10.0 mi SW 10.4 mph - N/A   Clear
6:15 AM 42.1 °F 36.1 °F 30.0 °F 62% 29.97 in 10.0 mi SW 10.4 mph - N/A   Clear
6:35 AM 41.9 °F 35.4 °F 30.4 °F 64% 29.97 in 10.0 mi SW 11.5 mph - N/A   Clear
6:55 AM 40.1 °F 34.1 °F 30.6 °F 69% 29.98 in 10.0 mi WSW 9.2 mph - N/A   Clear
7:15 AM 40.5 °F 34.1 °F 31.3 °F 70% 29.98 in 10.0 mi WSW 10.4 mph - N/A   Clear
7:35 AM 41.0 °F 35.8 °F 32.0 °F 70% 29.98 in 10.0 mi WSW 8.1 mph - N/A   Clear
7:55 AM 44.8 °F 39.4 °F 32.9 °F 63% 29.98 in 10.0 mi West 10.4 mph - N/A   Mostly Cloudy
8:15 AM 45.3 °F 39.7 °F 32.9 °F 62% 29.99 in 10.0 mi West 11.5 mph - N/A   Scattered Clouds
8:35 AM 46.0 °F 40.6 °F 33.1 °F 61% 30.00 in 10.0 mi West 11.5 mph - N/A   Clear
8:55 AM 46.8 °F - 33.1 °F 59% 30.00 in 10.0 mi West 10.4 mph 16.1 mph N/A   Clear
9:15 AM 48.2 °F - 32.9 °F 55% 30.01 in 10.0 mi WNW 12.7 mph 19.6 mph N/A   Clear
9:35 AM 49.1 °F - 32.0 °F 52% 30.01 in 10.0 mi WNW 13.8 mph 18.4 mph N/A   Clear
9:55 AM 50.0 °F - 31.6 °F 49% 30.02 in 10.0 mi NW 12.7 mph 21.9 mph N/A   Clear
10:15 AM 50.7 °F - 29.8 °F 45% 30.02 in 10.0 mi WNW 16.1 mph 24.2 mph N/A   Clear
10:35 AM 51.6 °F - 28.6 °F 41% 30.03 in 10.0 mi WNW 13.8 mph - N/A   Clear
10:55 AM 52.5 °F - 26.6 °F 37% 30.03 in 10.0 mi NW 12.7 mph 27.6 mph N/A   Clear
11:15 AM 52.9 °F - 23.2 °F 31% 30.04 in 10.0 mi NW 17.3 mph 25.3 mph N/A   Clear
11:35 AM 53.6 °F - 21.9 °F 29% 30.05 in 10.0 mi WNW 13.8 mph 25.3 mph N/A   Clear
11:55 AM 52.9 °F - 20.7 °F 28% 30.06 in 10.0 mi NW 16.1 mph 24.2 mph N/A   Clear
12:15 PM 53.4 °F - 18.5 °F 25% 30.06 in 10.0 mi WNW 19.6 mph 26.5 mph N/A   Clear
12:35 PM 53.2 °F - 18.7 °F 26% 30.06 in 10.0 mi NW 17.3 mph 26.5 mph N/A   Clear
12:55 PM 53.1 °F - 18.5 °F 26% 30.06 in 10.0 mi WNW 18.4 mph 26.5 mph N/A   Clear
1:15 PM 53.4 °F - 18.1 °F 25% 30.07 in 10.0 mi NW 19.6 mph 25.3 mph N/A   Clear
1:35 PM 54.0 °F - 20.5 °F 27% 30.06 in 10.0 mi WNW 17.3 mph 26.5 mph N/A   Clear
1:55 PM 53.6 °F - 18.5 °F 25% 30.07 in 10.0 mi NW 15.0 mph 24.2 mph N/A   Clear
2:15 PM 53.6 °F - 20.1 °F 27% 30.07 in 10.0 mi NW 16.1 mph 26.5 mph N/A   Clear
2:35 PM 53.8 °F - 21.9 °F 29% 30.07 in 10.0 mi NW 16.1 mph 21.9 mph N/A   Clear
2:55 PM 53.2 °F - 21.7 °F 29% 30.07 in 10.0 mi NW 16.1 mph 25.3 mph N/A   Clear
3:15 PM 53.8 °F - 20.7 °F 27% 30.07 in 10.0 mi WNW 16.1 mph 26.5 mph N/A   Clear
3:35 PM 54.0 °F - 20.3 °F 27% 30.08 in 10.0 mi NNW 17.3 mph 24.2 mph N/A   Clear
3:55 PM 54.0 °F - 19.8 °F 26% 30.09 in 10.0 mi NNW 15.0 mph 24.2 mph N/A   Clear
4:15 PM 53.6 °F - 20.5 °F 27% 30.08 in 10.0 mi NW 17.3 mph 24.2 mph N/A   Clear
4:35 PM 53.6 °F - 19.8 °F 27% 30.09 in 10.0 mi NNW 20.7 mph 24.2 mph N/A   Clear
4:55 PM 53.1 °F - 20.5 °F 28% 30.09 in 10.0 mi NW 15.0 mph 19.6 mph N/A   Clear
5:15 PM 52.7 °F - 21.2 °F 29% 30.09 in 10.0 mi NW 9.2 mph - N/A   Clear
5:35 PM 51.8 °F - 19.9 °F 29% 30.09 in 10.0 mi NW 9.2 mph - N/A   Clear
5:55 PM 50.2 °F - 21.0 °F 32% 30.10 in 10.0 mi NW 9.2 mph - N/A   Clear
6:15 PM 48.7 °F - 21.7 °F 35% 30.10 in 10.0 mi NW 3.5 mph - N/A   Clear
6:35 PM 47.7 °F - 22.1 °F 37% 30.11 in 10.0 mi NW 3.5 mph - N/A   Clear
6:55 PM 47.3 °F - 22.1 °F 37% 30.12 in 10.0 mi NW 3.5 mph - N/A   Clear
7:15 PM 46.4 °F 44.3 °F 22.6 °F 39% 30.13 in 10.0 mi WNW 4.6 mph - N/A   Clear
7:35 PM 45.5 °F - 23.2 °F 41% 30.13 in 10.0 mi Calm Calm - N/A   Clear
7:55 PM 44.8 °F 43.3 °F 23.4 °F 43% 30.13 in 10.0 mi WNW 3.5 mph - N/A   Clear
8:15 PM 44.6 °F 43.1 °F 23.2 °F 43% 30.13 in 10.0 mi WNW 3.5 mph - N/A   Clear
8:35 PM 42.3 °F 40.5 °F 24.3 °F 49% 30.13 in 10.0 mi West 3.5 mph - N/A   Clear
8:55 PM 41.9 °F 39.0 °F 23.9 °F 49% 30.13 in 10.0 mi West 4.6 mph - N/A   Clear
9:35 PM 41.0 °F 38.0 °F 23.9 °F 51% 30.14 in 10.0 mi West 4.6 mph - N/A   Clear
9:55 PM 40.5 °F 38.4 °F 24.1 °F 52% 30.15 in 10.0 mi West 3.5 mph - N/A   Clear
10:15 PM 40.1 °F 36.9 °F 24.3 °F 53% 30.15 in 10.0 mi WNW 4.6 mph - N/A   Clear
10:35 PM 37.9 °F 34.4 °F 24.1 °F 57% 30.15 in 10.0 mi West 4.6 mph - N/A   Clear
10:55 PM 38.8 °F 35.4 °F 24.4 °F 56% 30.15 in 10.0 mi West 4.6 mph - N/A   Clear
11:15 PM 37.6 °F 34.0 °F 24.3 °F 59% 30.15 in 10.0 mi West 4.6 mph - N/A   Clear
11:35 PM 36.5 °F 32.7 °F 24.1 °F 61% 30.14 in 10.0 mi West 4.6 mph - N/A   Clear
11:55 PM 34.0 °F 31.0 °F 23.7 °F 66% 30.13 in 10.0 mi West 3.5 mph - N/A   Clear